| time (UTC) | temp C | wind direction | speed KPH | gust KPH | rain 1hr cm | rain 24hr cm | rain mn cm | humidity % | barometer mb |
| 20260503220504 | 19 | 244 | 9.7 | 24.1 | 0.00 | 0.00 | 0.00 | 45 | 1004.4 |
| 20260503220007 | 18 | 249 | 11.3 | 22.5 | 0.00 | 0.00 | 0.00 | 46 | 1004.4 |
| 20260503215504 | 18 | 273 | 12.9 | 27.4 | 0.00 | 0.00 | 0.00 | 45 | 1004.5 |
| 20260503215003 | 18 | 227 | 11.3 | 24.1 | 0.00 | 0.00 | 0.00 | 46 | 1004.5 |
| 20260503214504 | 18 | 190 | 9.7 | 25.7 | 0.00 | 0.00 | 0.00 | 45 | 1004.6 |
| 20260503214003 | 18 | 274 | 11.3 | 25.7 | 0.00 | 0.00 | 0.00 | 46 | 1004.5 |
| 20260503213503 | 18 | 251 | 11.3 | 25.7 | 0.00 | 0.00 | 0.00 | 46 | 1004.6 |
| 20260503213004 | 18 | 169 | 12.9 | 25.7 | 0.00 | 0.00 | 0.00 | 46 | 1004.6 |
| 20260503212504 | 18 | 144 | 12.9 | 27.4 | 0.00 | 0.00 | 0.00 | 46 | 1004.7 |
| 20260503212004 | 18 | 265 | 12.9 | 27.4 | 0.00 | 0.00 | 0.00 | 47 | 1004.9 |
| 20260503211504 | 18 | 197 | 14.5 | 27.4 | 0.00 | 0.00 | 0.00 | 46 | 1004.8 |
| 20260503211003 | 18 | 178 | 12.9 | 29.0 | 0.00 | 0.00 | 0.00 | 47 | 1004.7 |
| 20260503210504 | 18 | 220 | 12.9 | 29.0 | 0.00 | 0.00 | 0.00 | 46 | 1004.7 |
| 20260503210006 | 18 | 218 | 12.9 | 29.0 | 0.00 | 0.00 | 0.00 | 48 | 1004.8 |
| 20260503205504 | 18 | 242 | 16.1 | 29.0 | 0.00 | 0.00 | 0.00 | 51 | 1004.9 |
| 20260503204505 | 18 | 172 | 12.9 | 32.2 | 0.00 | 0.00 | 0.00 | 49 | 1005.1 |
| 20260503203504 | 17 | 187 | 12.9 | 32.2 | 0.00 | 0.00 | 0.00 | 49 | 1005.2 |
| 20260503203004 | 17 | 177 | 14.5 | 32.2 | 0.00 | 0.00 | 0.00 | 53 | 1005.3 |
| 20260503202503 | 17 | 280 | 14.5 | 37.0 | 0.00 | 0.00 | 0.00 | 49 | 1005.4 |
| 20260503201503 | 18 | 288 | 11.3 | 27.4 | 0.00 | 0.00 | 0.00 | 50 | 1005.5 |
| 20260503200503 | 17 | 240 | 12.9 | 32.2 | 0.00 | 0.00 | 0.00 | 48 | 1005.7 |
| 20260503200005 | 17 | 261 | 16.1 | 29.0 | 0.00 | 0.00 | 0.00 | 48 | 1005.7 |
| 20260503195504 | 17 | 296 | 16.1 | 41.8 | 0.00 | 0.00 | 0.00 | 46 | 1005.9 |
| 20260503195003 | 18 | 234 | 12.9 | 41.8 | 0.00 | 0.00 | 0.00 | 47 | 1006.0 |
| 20260503194503 | 17 | 299 | 14.5 | 40.2 | 0.00 | 0.00 | 0.00 | 50 | 1006.0 |
| 20260503194004 | 17 | 271 | 14.5 | 40.2 | 0.00 | 0.00 | 0.00 | 46 | 1005.9 |
| 20260503193504 | 18 | 169 | 12.9 | 33.8 | 0.00 | 0.00 | 0.00 | 46 | 1006.1 |
| 20260503193004 | 18 | 236 | 12.9 | 33.8 | 0.00 | 0.00 | 0.00 | 45 | 1005.9 |
| 20260503192503 | 18 | 222 | 12.9 | 29.0 | 0.00 | 0.00 | 0.00 | 46 | 1006.0 |
| 20260503192005 | 18 | 220 | 14.5 | 33.8 | 0.00 | 0.00 | 0.00 | 45 | 1006.1 |
| 20260503191503 | 18 | 207 | 12.9 | 33.8 | 0.00 | 0.00 | 0.00 | 45 | 1006.0 |
| 20260503191003 | 18 | 252 | 11.3 | 25.7 | 0.00 | 0.00 | 0.00 | 47 | 1006.0 |
| 20260503190503 | 17 | 161 | 11.3 | 37.0 | 0.00 | 0.00 | 0.00 | 50 | 1006.1 |
| 20260503190005 | 17 | 257 | 12.9 | 37.0 | 0.00 | 0.00 | 0.00 | 46 | 1006.1 |
| 20260503185503 | 17 | 267 | 14.5 | 27.4 | 0.00 | 0.00 | 0.00 | 49 | 1006.3 |
| 20260503185003 | 17 | 293 | 14.5 | 33.8 | 0.00 | 0.00 | 0.00 | 49 | 1006.3 |
| 20260503184504 | 17 | 261 | 12.9 | 33.8 | 0.00 | 0.00 | 0.00 | 50 | 1006.4 |
| 20260503184004 | 17 | 209 | 11.3 | 24.1 | 0.00 | 0.00 | 0.00 | 54 | 1006.3 |
| 20260503183504 | 16 | 157 | 14.5 | 32.2 | 0.00 | 0.00 | 0.00 | 51 | 1006.4 |
| 20260503183003 | 16 | 167 | 14.5 | 32.2 | 0.00 | 0.00 | 0.00 | 52 | 1006.6 |
| 20260503182503 | 16 | 220 | 12.9 | 30.6 | 0.00 | 0.00 | 0.00 | 52 | 1006.7 |
| 20260503182005 | 16 | 201 | 12.9 | 30.6 | 0.00 | 0.00 | 0.00 | 53 | 1006.9 |
| 20260503180503 | 16 | 202 | 14.5 | 35.4 | 0.00 | 0.00 | 0.00 | 53 | 1007.3 |
| 20260503180007 | 15 | 153 | 16.1 | 35.4 | 0.00 | 0.00 | 0.00 | 52 | 1007.3 |
| 20260503175506 | 15 | 205 | 14.5 | 30.6 | 0.00 | 0.00 | 0.00 | 53 | 1007.4 |
| 20260503175003 | 15 | 148 | 12.9 | 35.4 | 0.00 | 0.00 | 0.00 | 55 | 1007.5 |
| 20260503174503 | 15 | 175 | 12.9 | 38.6 | 0.00 | 0.00 | 0.00 | 55 | 1007.5 |
| 20260503173503 | 15 | 180 | 12.9 | 30.6 | 0.00 | 0.00 | 0.00 | 58 | 1007.7 |
| 20260503173004 | 15 | 191 | 12.9 | 30.6 | 0.00 | 0.00 | 0.00 | 56 | 1007.8 |
| 20260503172504 | 15 | 219 | 12.9 | 38.6 | 0.00 | 0.00 | 0.00 | 59 | 1008.0 |
| 20260503172003 | 14 | 194 | 14.5 | 38.6 | 0.00 | 0.00 | 0.00 | 58 | 1008.0 |
| 20260503171503 | 14 | 140 | 14.5 | 29.0 | 0.00 | 0.00 | 0.00 | 58 | 1008.1 |
| 20260503171005 | 13 | 188 | 12.9 | 32.2 | 0.00 | 0.00 | 0.00 | 59 | 1008.2 |
| 20260503170503 | 13 | 167 | 11.3 | 25.7 | 0.00 | 0.00 | 0.00 | 59 | 1008.3 |
| 20260503150502 | 13 | 180 | 11.3 | 27.4 | 0.00 | 0.00 | 0.00 | 55 | 1009.4 |
| 20260503131002 | 10 | 259 | 8.0 | 24.1 | 0.00 | 0.00 | 0.00 | 60 | 1010.5 |
| 20260503130504 | 10 | 140 | 8.0 | 16.1 | 0.00 | 0.00 | 0.00 | 60 | 1010.5 |
| 20260503110502 | 9 | 202 | 4.8 | 16.1 | 0.00 | 0.00 | 0.00 | 56 | 1010.4 |
| 20260503090503 | 8 | 181 | 6.4 | 14.5 | 0.00 | 0.00 | 0.00 | 58 | 1011.3 |
| 20260503081502 | 8 | 214 | 6.4 | 19.3 | 0.00 | 0.00 | 0.00 | 55 | 1011.7 |
| 20260503081003 | 8 | 208 | 6.4 | 19.3 | 0.00 | 0.00 | 0.00 | 55 | 1011.7 |
| 20260503080502 | 8 | 187 | 4.8 | 11.3 | 0.00 | 0.00 | 0.00 | 56 | 1011.7 |
| 20260503072502 | 8 | 227 | 6.4 | 14.5 | 0.00 | 0.00 | 0.00 | 56 | 1011.9 |
| 20260503072003 | 8 | 218 | 4.8 | 14.5 | 0.00 | 0.00 | 0.00 | 56 | 1012.0 |
| 20260503071502 | 8 | 199 | 4.8 | 14.5 | 0.00 | 0.00 | 0.00 | 57 | 1012.1 |
| 20260503071001 | 8 | 255 | 4.8 | 14.5 | 0.00 | 0.00 | 0.00 | 57 | 1012.1 |
| 20260503070501 | 8 | 221 | 4.8 | 14.5 | 0.00 | 0.00 | 0.00 | 57 | 1012.2 |
| 20260503055003 | 7 | 211 | 3.2 | 11.3 | 0.00 | 0.00 | 0.00 | 58 | 1012.9 |
| 20260503054504 | 7 | 185 | 3.2 | 11.3 | 0.00 | 0.00 | 0.00 | 59 | 1013.0 |
| 20260503054004 | 7 | 241 | 4.8 | 14.5 | 0.00 | 0.00 | 0.00 | 59 | 1013.0 |
| 20260503053003 | 7 | 225 | 3.2 | 8.0 | 0.00 | 0.00 | 0.00 | 62 | 1013.0 |
| 20260503052505 | 6 | 241 | 3.2 | 8.0 | 0.00 | 0.00 | 0.00 | 63 | 1013.0 |
| 20260503052004 | 6 | 178 | 3.2 | 9.7 | 0.00 | 0.00 | 0.00 | 64 | 1013.0 |
| 20260503051504 | 6 | 212 | 3.2 | 9.7 | 0.00 | 0.00 | 0.00 | 66 | 1013.1 |
| 20260503050504 | 5 | 201 | 1.6 | 12.9 | 0.00 | 0.00 | 0.00 | 69 | 1013.1 |
| 20260503050009 | 5 | 201 | 1.6 | 12.9 | 0.00 | 0.00 | 0.00 | 70 | 1013.2 |
| 20260503045004 | 5 | 148 | 1.6 | 3.2 | 0.00 | 0.00 | 0.00 | 72 | 1013.2 |
| 20260503044004 | 5 | 148 | 1.6 | 4.8 | 0.00 | 0.00 | 0.00 | 73 | 1013.2 |
| 20260503043505 | 5 | 148 | 0.0 | 4.8 | 0.00 | 0.00 | 0.00 | 73 | 1013.2 |
| 20260503042503 | 5 | 148 | 0.0 | 0.0 | 0.00 | 0.00 | 0.00 | 73 | 1013.3 |
| 20260503041004 | 5 | 148 | 0.0 | 4.8 | 0.00 | 0.00 | 0.00 | 73 | 1013.4 |
| 20260503040504 | 5 | 148 | 0.0 | 4.8 | 0.00 | 0.00 | 0.00 | 73 | 1013.4 |
| 20260503040004 | 5 | 148 | 1.6 | 4.8 | 0.00 | 0.00 | 0.00 | 73 | 1013.5 |
| 20260503035502 | 5 | 148 | 1.6 | 4.8 | 0.00 | 0.00 | 0.00 | 73 | 1013.6 |
| 20260503035003 | 5 | 148 | 1.6 | 3.2 | 0.00 | 0.00 | 0.00 | 73 | 1013.7 |
| 20260503034502 | 5 | 148 | 1.6 | 3.2 | 0.00 | 0.00 | 0.00 | 74 | 1013.6 |
| 20260503034003 | 5 | 148 | 1.6 | 3.2 | 0.00 | 0.00 | 0.00 | 74 | 1013.6 |
| 20260503033004 | 5 | 148 | 0.0 | 1.6 | 0.00 | 0.00 | 0.00 | 73 | 1013.8 |
| 20260503032503 | 5 | 148 | 0.0 | 3.2 | 0.00 | 0.00 | 0.00 | 73 | 1013.8 |
| 20260503032003 | 5 | 148 | 0.0 | 3.2 | 0.00 | 0.00 | 0.00 | 73 | 1013.9 |
| 20260503031505 | 5 | 148 | 0.0 | 1.6 | 0.00 | 0.00 | 0.00 | 72 | 1013.9 |
| 20260503031004 | 5 | 148 | 0.0 | 1.6 | 0.00 | 0.00 | 0.00 | 71 | 1014.0 |
| 20260503030504 | 6 | 148 | 0.0 | 1.6 | 0.00 | 0.00 | 0.00 | 71 | 1014.0 |
| 20260503025503 | 6 | 148 | 0.0 | 1.6 | 0.00 | 0.00 | 0.00 | 70 | 1014.2 |
| 20260503025004 | 6 | 148 | 0.0 | 3.2 | 0.00 | 0.00 | 0.00 | 69 | 1014.2 |
| 20260503024004 | 6 | 148 | 0.0 | 3.2 | 0.00 | 0.00 | 0.00 | 68 | 1014.2 |
| 20260503023503 | 6 | 148 | 0.0 | 4.8 | 0.00 | 0.00 | 0.00 | 68 | 1014.3 |
| 20260503023004 | 6 | 148 | 0.0 | 4.8 | 0.00 | 0.00 | 0.00 | 67 | 1014.2 |
| 20260503022003 | 6 | 148 | 0.0 | 3.2 | 0.00 | 0.00 | 0.00 | 66 | 1014.2 |
| 20260503021005 | 7 | 148 | 1.6 | 3.2 | 0.00 | 0.00 | 0.00 | 65 | 1014.2 |
| 20260503020504 | 7 | 148 | 1.6 | 3.2 | 0.00 | 0.00 | 0.00 | 64 | 1014.3 |
| 20260503020006 | 7 | 148 | 1.6 | 4.8 | 0.00 | 0.00 | 0.00 | 64 | 1014.3 |
| 20260503014505 | 7 | 180 | 1.6 | 4.8 | 0.00 | 0.00 | 0.00 | 62 | 1014.1 |
| 20260503014004 | 7 | 122 | 1.6 | 4.8 | 0.00 | 0.00 | 0.00 | 61 | 1014.1 |
| 20260503013504 | 7 | 130 | 3.2 | 6.4 | 0.00 | 0.00 | 0.00 | 60 | 1014.0 |
| 20260503013005 | 8 | 144 | 3.2 | 8.0 | 0.00 | 0.00 | 0.00 | 60 | 1014.0 |
| 20260503012504 | 8 | 127 | 4.8 | 8.0 | 0.00 | 0.00 | 0.00 | 59 | 1013.9 |
| 20260503012004 | 8 | 140 | 3.2 | 12.9 | 0.00 | 0.00 | 0.00 | 59 | 1013.9 |
| 20260503011504 | 8 | 154 | 3.2 | 9.7 | 0.00 | 0.00 | 0.00 | 58 | 1013.9 |
| 20260503010504 | 8 | 155 | 3.2 | 12.9 | 0.00 | 0.00 | 0.00 | 57 | 1014.0 |
| 20260503010006 | 8 | 141 | 3.2 | 11.3 | 0.00 | 0.00 | 0.00 | 57 | 1014.0 |
| 20260503005503 | 8 | 137 | 3.2 | 11.3 | 0.00 | 0.00 | 0.00 | 57 | 1014.0 |
| 20260503005003 | 8 | 125 | 3.2 | 11.3 | 0.00 | 0.00 | 0.00 | 56 | 1014.1 |
| 20260503004504 | 9 | 127 | 3.2 | 12.9 | 0.00 | 0.00 | 0.00 | 55 | 1014.0 |
| 20260503003504 | 9 | 119 | 4.8 | 12.9 | 0.00 | 0.00 | 0.00 | 55 | 1014.0 |
| 20260503003005 | 10 | 102 | 3.2 | 12.9 | 0.00 | 0.00 | 0.00 | 53 | 1014.0 |
| 20260503002504 | 10 | 114 | 4.8 | 16.1 | 0.00 | 0.00 | 0.00 | 54 | 1014.0 |
| 20260503001503 | 10 | 179 | 4.8 | 12.9 | 0.00 | 0.00 | 0.00 | 53 | 1014.1 |
| 20260503001004 | 10 | 165 | 4.8 | 12.9 | 0.00 | 0.00 | 0.00 | 51 | 1014.1 |
| 20260503000504 | 10 | 146 | 4.8 | 11.3 | 0.00 | 0.00 | 0.00 | 51 | 1014.1 |
| 20260503000004 | 10 | 122 | 4.8 | 16.1 | 0.00 | 0.00 | 0.00 | 51 | 1014.1 |
| 20260502235503 | 10 | 109 | 4.8 | 16.1 | 0.00 | 0.00 | 0.00 | 50 | 1014.1 |
| 20260502235003 | 11 | 156 | 4.8 | 12.9 | 0.00 | 0.00 | 0.00 | 51 | 1014.2 |
| 20260502234504 | 11 | 79 | 4.8 | 12.9 | 0.00 | 0.00 | 0.00 | 50 | 1014.2 |
| 20260502234004 | 11 | 165 | 3.2 | 11.3 | 0.00 | 0.00 | 0.00 | 51 | 1014.3 |
| 20260502233502 | 11 | 205 | 3.2 | 11.3 | 0.00 | 0.00 | 0.00 | 50 | 1014.4 |
| 20260502233002 | 11 | 179 | 6.4 | 16.1 | 0.00 | 0.00 | 0.00 | 51 | 1014.4 |
| 20260502232502 | 11 | 93 | 8.0 | 16.1 | 0.00 | 0.00 | 0.00 | 50 | 1014.4 |
| 20260502232003 | 11 | 116 | 6.4 | 16.1 | 0.00 | 0.00 | 0.00 | 51 | 1014.4 |
| 20260502231503 | 11 | 92 | 6.4 | 12.9 | 0.00 | 0.00 | 0.00 | 51 | 1014.5 |
| 20260502231002 | 11 | 101 | 6.4 | 16.1 | 0.00 | 0.00 | 0.00 | 51 | 1014.5 |
| 20260502230005 | 11 | 132 | 4.8 | 12.9 | 0.00 | 0.00 | 0.00 | 52 | 1014.6 |
| 20260502225503 | 11 | 94 | 6.4 | 12.9 | 0.00 | 0.00 | 0.00 | 52 | 1014.7 |
| 20260502225002 | 11 | 72 | 6.4 | 14.5 | 0.00 | 0.00 | 0.00 | 51 | 1014.7 |
| 20260502224503 | 11 | 103 | 6.4 | 14.5 | 0.00 | 0.00 | 0.00 | 51 | 1014.8 |
| 20260502223503 | 11 | 83 | 4.8 | 14.5 | 0.00 | 0.00 | 0.00 | 52 | 1014.8 |
| 20260502223003 | 11 | 93 | 4.8 | 11.3 | 0.00 | 0.00 | 0.00 | 50 | 1014.9 |
| 20260502222503 | 11 | 134 | 6.4 | 12.9 | 0.00 | 0.00 | 0.00 | 53 | 1014.9 |
| 20260502222002 | 10 | 105 | 4.8 | 16.1 | 0.00 | 0.00 | 0.00 | 52 | 1015.1 |
| 20260502221502 | 10 | 96 | 4.8 | 12.9 | 0.00 | 0.00 | 0.00 | 54 | 1015.1 |
| 20260502221003 | 10 | 101 | 4.8 | 11.3 | 0.00 | 0.00 | 0.00 | 52 | 1015.0 |